Location: Ladrillo (historical)
(32.8195°N, 117.2231°W)
Time: 19:40:38
(UTC+00:00)

Explorer 7 - Visible Passes

Search period start: 28 February 2021 00:00
Search period end: 10 March 2021 00:00
Orbit: 484 x 677 km, 50.3° (Epoch: 28 February)

Date Brightness Start Highest point End Pass type
(mag) Time Alt. Az. Time Alt. Az. Time Alt. Az.
01 Mar 9.3 03:35:59 10° N 03:36:30 11° N 03:36:30 11° N visible
02 Mar 9.1 03:39:51 10° NNW 03:41:01 15° N 03:41:01 15° N visible
03 Mar 8.8 03:43:58 10° NNW 03:45:35 19° N 03:45:35 19° N visible
04 Mar 9.1 02:09:40 10° N 02:10:41 11° NNE 02:11:41 10° NNE visible
04 Mar 8.5 03:48:14 10° NW 03:50:13 25° NNW 03:50:13 25° NNW visible
05 Mar 8.8 02:13:14 10° N 02:15:34 15° NNE 02:17:50 10° ENE visible
05 Mar 8.2 03:52:38 10° NW 03:54:56 32° NW 03:54:56 32° NW visible
06 Mar 8.3 02:17:15 10° NNW 02:20:23 21° NNE 02:23:23 10° E visible
06 Mar 8.3 03:57:13 10° WNW 03:59:45 34° WNW 03:59:45 34° WNW visible
07 Mar 7.7 02:21:26 10° NNW 02:25:07 31° NE 02:28:22 11° E visible
07 Mar 8.7 04:02:05 10° WNW 04:04:42 26° WSW 04:04:42 26° WSW visible
08 Mar 7.0 02:25:44 10° NW 02:29:45 52° NE 02:33:26 11° ESE visible
08 Mar 9.3 04:07:30 10° W 04:09:46 15° SW 04:09:46 15° SW visible
09 Mar 6.7 02:30:11 10° NW 02:34:18 86° SW 02:38:10 10° SE visible
